FENGYUN 1C DEB, 36696

Orbit data source: Space-Track

FENGYUN 1C DEB, 36696 is space debris in SSO originally from a launch on Mon, 10 May 1999 UTC launched from the Taiyaun Space Center, China (TSC). Fengyun 1C debris stems from the Chinese weather satellite Fengyun-1C, which was intentionally destroyed by a Chinese anti-satellite missile in 2007. This event dramatically increased the amount of space debris, with thousands of trackable fragments posing hazards to satellites and human spaceflight. The Fengyun 1C debris cloud has become a focal point in discussions about space sustainability and the need for international regulations to prevent the creation of new debris.

Loading next visibility...
Identifier
36696, 1999-025DZS
Orbit
SSO
Country
Flag of CNCN / PRC
Related business
Manufacturer
Unknown
Mission
Spacecraft
Bus & Motor
Unknown
Mass
Unknown
Launch date (UTC)
1999-05-10 (27 years ago)
Launch vehicle
Unknown
Launch site
Taiyaun Space Center, China (TSC)
Object type
Payload
Rocket body
Debris
Shape & HBR
Unknown shape, 0.1 m
Radar Cross Section
Small (<0.1 m²)

Expand to show TLE details & history
Last TLE update: 3 weeks ago

TLE from 3 weeks ago
0 FENGYUN 1C DEB
1 36696U 99025DZS 26150.50588328  .00006284  00000-0  19533-2 0  9991
2 36696  98.9822 172.9039 0023389 182.1471 177.9620 14.41218470668251
Epoch: 2026-05-30T12:08Z
TLE epoch observation values (Epoch: 2026-05-30T12:08:28.315Z)
Latitude
0.00002°
Longitude
102.76498°
Altitude
774.085 km
Speed
7.458 km/s
True Right ascension
11h 31m 36s
True Declination
0° 00' 00"
Sunlit
Object was in daylight at epoch
Visualization orbit readout
Latitude
Unknown
Longitude
Unknown
Altitude
Unknown
Speed
Unknown
Apparent Right ascension
Unknown
Apparent Declination
Unknown
Sunlit
N/A
Visualization observer readout
Local Sidereal Time
23:46:22
Azimuth
Unknown
Elevation
Unknown
Doppler factor
Unknown
Orbital elements
Apogee altitude
768.295 km
Perigee altitude
734.943 km
Semi-major axis
7,129.756 km
Eccentricity
0.00234
Inclination
98.9822°
RAAN
172.9039°
Arg. of periapsis
182.1471°
True anomaly
177.9715°
Mean anomaly
177.962°
Eccentric anomaly
177.96675°
Mean motion
3.60521 °/min
Orbital period
99.86 mins
BSTAR
0.0019533
Loading maneuver chart data...
Computing Atmospheric mass density...

Documentation

Showing up to 5 results
|